Regional Weather Roundup
Issued by NWS Sioux Falls, SD

Home | Current Version | Previous Version | Graphics & Text | Print | Product List | Glossary Off
Versions: 1 2 3 4 5 6 7 8 9 10 11 12 13 14 15 16 17 18 19 20 21 22 23 24 25 26 27 28 29 30 31 32 33 34 35 36 37 38 39 40 41 42 43 44 45 46 47 48 49 50

017
ASUS43 KFSD 131702
RWRFSD

WEATHER ROUNDUP FOR SE SOUTH DAKOTA/SW MINNESOTA/NW IOWA
NATIONAL WEATHER SERVICE SIOUX FALLS SD
1100 AM CST SAT FEB 13 2016

NOTE: "FAIR" INDICATES FEW OR NO CLOUDS BELOW 12,000 FEET WITH NO
SIGNIFICANT WEATHER AND OR OBSTRUCTIONS TO VISIBILITY.


SDZ038>040-050-052>070-131800-
SOUTHEAST SOUTH DAKOTA

CITY           SKY/WX    TMP DP  RH WIND       PRES   REMARKS
BROOKINGS      CLOUDY     4  -6  63 SE13      30.41F WCI -13
CHAMBERLAIN    NOT AVBL
HURON          CLOUDY     9  -1  64 SE21G28   30.37F WCI -11
MADISON        CLOUDY     1  -2  85 S16       30.40F WCI -18
MITCHELL       CLOUDY    10   2  69 SE20      30.40F WCI  -9
SIOUX FALLS    CLOUDY     5  -4  66 SE13      30.47F WCI -12
WINNER         FAIR      24  13  62 S25G32    30.17F WCI   8
YANKTON        CLOUDY     9  -2  61 SE16      30.45F WCI  -9
$$

MNZ071-072-080-081-089-090-097-098-131800-
SOUTHWEST MINNESOTA

CITY           SKY/WX    TMP DP  RH WIND       PRES   REMARKS
FAIRMONT       CLOUDY     1  -6  71 SE8       30.56F WCI -12
JACKSON        CLOUDY     3  -8  60 S8        30.53F WCI -10
LUVERNE        CLOUDY     5  -4  66 SE10      30.50F WCI -10
MARSHALL       CLOUDY     5  -4  66 SE13      30.52F WCI -12
MONTEVIDEO     PTSUNNY    3  -6  66 S8        30.54F WCI -10
PIPESTONE      CLOUDY     3  -9  55 S10G17    30.43F WCI -12
REDWOOD FALLS  CLOUDY     1  -6  72 SE10      30.57F WCI -15
TRACY          CLOUDY     4  -3  71 SE10      30.52F WCI -11
WINDOM         CLOUDY     1  -6  71 SE8       30.53F WCI -12
WORTHINGTON    CLOUDY     1  -8  66 S12       30.49F WCI -15
$$

IAZ001>003-012>014-020>022-031-032-NEZ013-014-SDZ071-131800-
NORTHWEST IOWA

CITY           SKY/WX    TMP DP  RH WIND       PRES   REMARKS
ESTHERVILLE    CLOUDY     1  -5  75 S10       30.55F WCI -15
SIOUX CITY     CLOUDY     9  -1  64 SE15      30.53F WCI  -8
SPENCER        CLOUDY     2  -6  69 SE9       30.54F WCI -13
STORM LAKE     CLOUDY     3  -4  72 SE12      30.52F WCI -13
$$

ABBREVIATIONS USED IN REMARKS
   TC - TEMPERATURE IN CELSIUS
  WCI - WIND CHILL INDEX
   HX - HEAT INDEX
  VSB - VISIBILITY





USA.gov is the U.S. government's official web portal to all federal, state and local government web resources and services.